DLH25E KLAX-EDDF

Flight info

Callsign DLH25E
Flight time N/A
Altitude 34000
Route LADYJ4 CSTRO DCT CANDA/N0494F350 DCT BAM/N0498F340 DCT BOI/N0493F350 DCT DOXIE DCT YQL Q896 MEETO DCT 58N100W 62N090W/N0497F370 65N080W 6730N07000W/M085F370 DCT BOPUT DCT 69N060W 70N050W 70N040W 6930N03000W/M085F390 68N020W 65N010W DCT RIXUN/N0482F390 DCT MOCHA DCT FORTY DCT ODMIX DCT CUTEL DCT GIGUL DCT TOPPA DCT AMGOD DCT PETIK DCT SOGPO DCT DIXAT DIXAT2C
Aircraft A359/H-SDE2E3GHIJ3J4J5LM1ORWXY/LB1D1

Departure

Time 2026-04-22 16:08
Airport Los Angeles International Airport (KLAX)

Arrival

Time N/A
Airport Frankfurt Main Airport (EDDF)
Time Latitude Longitude Altitude Speed Heading
2026-04-22 15:43 33.94025 -118.40916 128 ft 0 kts 264°
2026-04-22 15:56 33.94026 -118.40908 132 ft 4 kts 265°
2026-04-22 15:56 33.94028 -118.40877 129 ft 3 kts 264°
2026-04-22 15:56 33.94032 -118.40857 132 ft 3 kts 232°
2026-04-22 15:56 33.94047 -118.40836 130 ft 2 kts 203°
2026-04-22 15:57 33.94066 -118.40831 130 ft 4 kts 193°
2026-04-22 15:57 33.94082 -118.40832 132 ft 2 kts 170°
2026-04-22 15:57 33.94085 -118.40832 130 ft 4 kts 172°
2026-04-22 15:57 33.94063 -118.40828 130 ft 2 kts 173°
2026-04-22 15:58 33.94052 -118.40826 131 ft 2 kts 174°
2026-04-22 15:58 33.94046 -118.40826 128 ft 0 kts 175°
2026-04-22 16:00 33.94042 -118.40825 132 ft 3 kts 174°
2026-04-22 16:00 33.93993 -118.40820 126 ft 10 kts 175°
2026-04-22 16:00 33.93913 -118.40802 130 ft 13 kts 155°
2026-04-22 16:01 33.93840 -118.40738 126 ft 13 kts 144°
2026-04-22 16:01 33.93813 -118.40646 123 ft 12 kts 82°
2026-04-22 16:01 33.93822 -118.40552 124 ft 11 kts 83°
2026-04-22 16:01 33.93832 -118.40451 132 ft 14 kts 82°
2026-04-22 16:02 33.93846 -118.40318 132 ft 18 kts 83°
2026-04-22 16:02 33.93862 -118.40160 127 ft 21 kts 83°
2026-04-22 16:02 33.93880 -118.39973 132 ft 24 kts 83°
2026-04-22 16:02 33.93901 -118.39763 124 ft 27 kts 83°
2026-04-22 16:03 33.93926 -118.39533 125 ft 29 kts 83°
2026-04-22 16:03 33.93951 -118.39285 128 ft 31 kts 83°
2026-04-22 16:03 33.93978 -118.39021 132 ft 33 kts 83°
2026-04-22 16:03 33.94006 -118.38753 128 ft 32 kts 83°
2026-04-22 16:04 33.94032 -118.38493 128 ft 31 kts 83°
2026-04-22 16:04 33.94057 -118.38243 127 ft 29 kts 83°
2026-04-22 16:04 33.94073 -118.38070 128 ft 0 kts 84°
2026-04-22 16:05 33.94073 -118.38065 129 ft 2 kts 84°
2026-04-22 16:05 33.94072 -118.38039 132 ft 0 kts 104°
2026-04-22 16:06 33.94065 -118.38031 125 ft 6 kts 132°
2026-04-22 16:07 33.93989 -118.38041 123 ft 18 kts 242°
2026-04-22 16:07 33.93956 -118.38311 132 ft 58 kts 262°
2026-04-22 16:07 33.93883 -118.39029 124 ft 113 kts 263°
2026-04-22 16:07 33.93761 -118.40168 127 ft 160 kts 263°
2026-04-22 16:08 33.93629 -118.41579 585 ft 165 kts 263°
2026-04-22 16:08 33.93487 -118.42965 1179 ft 170 kts 263°
2026-04-22 16:08 33.93352 -118.44357 1506 ft 165 kts 264°
2026-04-22 16:08 33.93239 -118.45745 1740 ft 168 kts 265°
2026-04-22 16:09 33.93149 -118.47170 1906 ft 176 kts 266°
2026-04-22 16:09 33.93088 -118.48182 1993 ft 182 kts 265°
2026-04-22 16:09 33.92982 -118.49740 2159 ft 191 kts 265°
2026-04-22 16:09 33.92853 -118.51362 2366 ft 199 kts 264°
2026-04-22 16:10 33.92696 -118.53048 2586 ft 206 kts 263°
2026-04-22 16:10 33.92515 -118.54788 2827 ft 212 kts 263°
2026-04-22 16:10 33.92341 -118.56533 3275 ft 207 kts 263°
2026-04-22 16:10 33.92186 -118.58203 3729 ft 201 kts 264°
2026-04-22 16:11 33.92041 -118.59879 4074 ft 202 kts 265°
2026-04-22 16:11 33.92099 -118.61584 4415 ft 199 kts 285°
2026-04-22 16:11 33.92717 -118.62992 4970 ft 186 kts 306°
2026-04-22 16:11 33.93536 -118.64149 5301 ft 184 kts 313°
2026-04-22 16:12 33.94636 -118.64941 5627 ft 174 kts 337°
2026-04-22 16:12 33.95730 -118.65495 5958 ft 172 kts 332°
2026-04-22 16:12 33.96784 -118.66119 6186 ft 169 kts 330°
2026-04-22 16:12 33.97817 -118.66766 6441 ft 167 kts 329°
2026-04-22 16:13 33.98853 -118.67400 6634 ft 169 kts 331°
2026-04-22 16:13 34.00006 -118.67765 6778 ft 176 kts 351°
2026-04-22 16:13 34.01225 -118.67704 6958 ft 179 kts 359°
2026-04-22 16:13 34.02474 -118.67532 7082 ft 183 kts
2026-04-22 16:14 34.03750 -118.67359 7218 ft 186 kts 359°
2026-04-22 16:14 34.05060 -118.67251 7388 ft 190 kts 358°
2026-04-22 16:14 34.06390 -118.67165 7569 ft 193 kts 357°
2026-04-22 16:14 34.07745 -118.67058 7793 ft 198 kts 359°
2026-04-22 16:15 34.09130 -118.66794 7950 ft 205 kts
2026-04-22 16:15 34.10540 -118.66377 8115 ft 213 kts
2026-04-22 16:15 34.11997 -118.65969 8304 ft 216 kts
2026-04-22 16:15 34.13498 -118.65632 8484 ft 223 kts
2026-04-22 16:16 34.15033 -118.65251 8720 ft 227 kts
2026-04-22 16:16 34.16587 -118.64891 8974 ft 229 kts
2026-04-22 16:16 34.18159 -118.64565 9235 ft 229 kts
2026-04-22 16:16 34.19752 -118.64261 9457 ft 235 kts
2026-04-22 16:17 34.21375 -118.63905 9639 ft 240 kts
2026-04-22 16:17 34.23041 -118.63495 9792 ft 250 kts
2026-04-22 16:17 34.24774 -118.63171 9948 ft 252 kts 355°
2026-04-22 16:17 34.26495 -118.63453 10155 ft 249 kts 337°
2026-04-22 16:18 34.28171 -118.63958 10467 ft 248 kts 341°
2026-04-22 16:18 34.29875 -118.64365 10740 ft 252 kts 343°
2026-04-22 16:18 34.31612 -118.64721 10996 ft 254 kts 343°
2026-04-22 16:18 34.33358 -118.65106 11246 ft 256 kts 342°
2026-04-22 16:19 34.35114 -118.65547 11497 ft 259 kts 340°
2026-04-22 16:19 34.36874 -118.66047 11661 ft 263 kts 340°
2026-04-22 16:19 34.38700 -118.66498 11734 ft 273 kts 343°
2026-04-22 16:19 34.40624 -118.66827 11850 ft 285 kts 347°
2026-04-22 16:20 34.42628 -118.67078 11969 ft 292 kts 345°
2026-04-22 16:20 34.44643 -118.67547 12104 ft 299 kts 342°
2026-04-22 16:20 34.46709 -118.68060 12248 ft 307 kts 342°
2026-04-22 16:20 34.48838 -118.68548 12393 ft 316 kts 343°
2026-04-22 16:21 34.51030 -118.69014 12581 ft 323 kts 344°
2026-04-22 16:21 34.53271 -118.69471 12737 ft 331 kts 344°
2026-04-22 16:21 34.55569 -118.69925 12917 ft 339 kts 345°
2026-04-22 16:21 34.57931 -118.70391 13107 ft 348 kts 345°
2026-04-22 16:22 34.62832 -118.71360 13580 ft 365 kts 344°
2026-04-22 16:22 34.65373 -118.71860 13763 ft 374 kts 345°
2026-04-22 16:22 34.67932 -118.72362 13950 ft 381 kts 344°
2026-04-22 16:23 34.73093 -118.74012 14300 ft 384 kts 329°
2026-04-22 16:23 34.75457 -118.75509 14570 ft 385 kts 325°
2026-04-22 16:23 34.77797 -118.77110 14871 ft 387 kts 325°
2026-04-22 16:24 34.80143 -118.78728 15194 ft 388 kts 324°
2026-04-22 16:24 34.84874 -118.81990 15812 ft 393 kts 324°
2026-04-22 16:24 34.87257 -118.83632 16134 ft 395 kts 324°
2026-04-22 16:25 34.89654 -118.85283 16458 ft 397 kts 324°
2026-04-22 16:25 34.94496 -118.88617 17124 ft 401 kts 324°
2026-04-22 16:25 34.96929 -118.90294 17430 ft 403 kts 324°
2026-04-22 16:26 34.99372 -118.91979 17726 ft 405 kts 324°
2026-04-22 16:26 35.01827 -118.93673 18133 ft 405 kts 324°
2026-04-22 16:26 35.04277 -118.95364 18434 ft 406 kts 324°
2026-04-22 16:26 35.06739 -118.97067 18700 ft 408 kts 324°
2026-04-22 16:27 35.09214 -118.98779 18986 ft 410 kts 324°
2026-04-22 16:27 35.11703 -119.00501 19245 ft 411 kts 324°
2026-04-22 16:27 35.14200 -119.02231 19489 ft 413 kts 324°
2026-04-22 16:27 35.16702 -119.03965 19778 ft 415 kts 323°
2026-04-22 16:28 35.19215 -119.05707 20074 ft 416 kts 323°
2026-04-22 16:28 35.21739 -119.07459 20363 ft 417 kts 323°
2026-04-22 16:28 35.24267 -119.09215 20630 ft 419 kts 323°
2026-04-22 16:28 35.26802 -119.10978 20877 ft 421 kts 323°
2026-04-22 16:29 35.29356 -119.12754 21130 ft 423 kts 323°
2026-04-22 16:29 35.31911 -119.14533 21405 ft 424 kts 323°
2026-04-22 16:29 35.34486 -119.16327 21673 ft 426 kts 323°
2026-04-22 16:29 35.37066 -119.18126 21925 ft 428 kts 323°
2026-04-22 16:30 35.38784 -119.19308 22119 ft 430 kts 324°
2026-04-22 16:30 35.42500 -119.21291 22500 ft 442 kts 335°
2026-04-22 16:30 35.45531 -119.22153 22744 ft 454 kts 344°
2026-04-22 16:30 35.48730 -119.22376 22983 ft 467 kts 354°
2026-04-22 16:31 35.52002 -119.21982 23240 ft 476 kts
2026-04-22 16:31 35.55282 -119.21339 23499 ft 480 kts
2026-04-22 16:31 35.58575 -119.20583 23740 ft 483 kts
2026-04-22 16:31 35.61885 -119.19780 24030 ft 484 kts
2026-04-22 16:32 35.65186 -119.18973 24277 ft 485 kts
2026-04-22 16:32 35.68515 -119.18174 24462 ft 487 kts
2026-04-22 16:32 35.71849 -119.17389 24680 ft 489 kts
2026-04-22 16:32 35.75191 -119.16615 24897 ft 490 kts
2026-04-22 16:33 35.78554 -119.15843 25099 ft 492 kts
2026-04-22 16:33 35.81919 -119.15075 25309 ft 493 kts
2026-04-22 16:33 35.85298 -119.14303 25546 ft 495 kts
2026-04-22 16:33 35.88688 -119.13529 25762 ft 496 kts
2026-04-22 16:34 35.92092 -119.12750 25985 ft 498 kts
2026-04-22 16:34 35.95503 -119.11968 26206 ft 500 kts
2026-04-22 16:34 35.98882 -119.11192 26427 ft 501 kts
2026-04-22 16:34 36.02318 -119.10403 26645 ft 503 kts
2026-04-22 16:35 36.15488 -119.07367 27483 ft 510 kts
2026-04-22 16:35 36.29549 -119.04117 28307 ft 516 kts
2026-04-22 16:35 36.43720 -119.00826 29090 ft 521 kts
2026-04-22 16:35 36.57912 -118.97508 30402 ft 514 kts
2026-04-22 16:36 36.71972 -118.94223 31179 ft 515 kts
2026-04-22 16:36 36.85974 -118.90937 32057 ft 511 kts
2026-04-22 16:36 36.99931 -118.87649 32787 ft 510 kts 360°
2026-04-22 16:36 37.13831 -118.84363 33456 ft 509 kts 359°
2026-04-22 16:37 37.27761 -118.81058 34051 ft 509 kts 359°
2026-04-22 16:37 37.41724 -118.76787 34147 ft 533 kts 12°
2026-04-22 16:37 37.69019 -118.61563 34219 ft 538 kts 14°
2026-04-22 16:38 37.82700 -118.53851 34088 ft 540 kts 14°
2026-04-22 16:38 37.96415 -118.46091 34065 ft 539 kts 14°
2026-04-22 16:38 38.23822 -118.30483 34046 ft 540 kts 14°
2026-04-22 16:39 38.51243 -118.14741 34061 ft 540 kts 14°
2026-04-22 16:39 38.78532 -117.98934 34067 ft 536 kts 15°
2026-04-22 16:40 39.05637 -117.83110 34071 ft 532 kts 16°
2026-04-22 16:41 39.46025 -117.59278 34075 ft 533 kts 17°
2026-04-22 16:41 39.72975 -117.43209 34085 ft 533 kts 18°
2026-04-22 16:42 39.99866 -117.27026 34086 ft 531 kts 19°
2026-04-22 16:42 40.26629 -117.10788 34067 ft 530 kts 20°
2026-04-22 16:43 40.53135 -116.94559 34109 ft 528 kts 20°
2026-04-22 16:43 40.67065 -116.89779 34110 ft 515 kts
2026-04-22 16:43 40.81197 -116.86526 34040 ft 515 kts
2026-04-22 16:44 41.09507 -116.79856 34052 ft 516 kts
2026-04-22 16:44 41.37694 -116.73140 34051 ft 514 kts
2026-04-22 16:45 41.65773 -116.66392 34027 ft 512 kts
2026-04-22 16:45 41.93837 -116.59588 34010 ft 513 kts
2026-04-22 16:46 42.21934 -116.52715 33994 ft 514 kts
2026-04-22 16:46 42.50035 -116.45775 33982 ft 512 kts
2026-04-22 16:47 42.78171 -116.38767 33952 ft 513 kts
2026-04-22 16:47 43.01512 -116.32908 33923 ft 513 kts
2026-04-22 16:48 43.34144 -116.24629 33928 ft 507 kts 10°
2026-04-22 16:48 43.61718 -116.16487 33924 ft 508 kts 17°
2026-04-22 16:49 43.88677 -116.04826 33921 ft 508 kts 17°
2026-04-22 16:49 44.15591 -115.93105 33875 ft 506 kts 18°
2026-04-22 16:50 44.42384 -115.81330 33819 ft 504 kts 19°
2026-04-22 16:50 44.69029 -115.69501 33750 ft 502 kts 20°
2026-04-22 16:51 44.95591 -115.57589 33721 ft 502 kts 20°
2026-04-22 16:51 45.22299 -115.45493 33687 ft 503 kts 20°
2026-04-22 16:52 45.48806 -115.33375 33692 ft 504 kts 20°
2026-04-22 16:52 45.71125 -115.23081 33724 ft 502 kts 21°
2026-04-22 16:53 46.01480 -115.06410 33737 ft 505 kts 27°
2026-04-22 16:53 46.27267 -114.90491 33725 ft 502 kts 27°
2026-04-22 16:54 46.53046 -114.74427 33706 ft 505 kts 27°
2026-04-22 16:54 46.79078 -114.58036 33664 ft 512 kts 27°
2026-04-22 16:55 47.05182 -114.41416 33621 ft 517 kts 27°
2026-04-22 16:55 47.27279 -114.27223 33581 ft 516 kts 27°
2026-04-22 16:56 47.53617 -114.10127 33600 ft 521 kts 27°
2026-04-22 16:56 47.80378 -113.92554 33579 ft 528 kts 27°
2026-04-22 16:57 48.07340 -113.74661 33543 ft 531 kts 27°
2026-04-22 16:57 48.34424 -113.56486 33537 ft 535 kts 27°
2026-04-22 16:58 48.61624 -113.37992 33541 ft 538 kts 27°
2026-04-22 16:58 48.88881 -113.19240 33531 ft 539 kts 27°
2026-04-22 16:59 49.16248 -113.00190 33523 ft 541 kts 27°
2026-04-22 16:59 49.43586 -112.80933 33565 ft 540 kts 26°
2026-04-22 17:00 49.70000 -112.59562 33572 ft 534 kts 38°
2026-04-22 17:00 50.05996 -112.18996 33525 ft 533 kts 38°
2026-04-22 17:01 50.29930 -111.91634 33519 ft 534 kts 38°
2026-04-22 17:01 50.53849 -111.63939 33505 ft 535 kts 38°
2026-04-22 17:02 50.77781 -111.35870 33494 ft 536 kts 38°
2026-04-22 17:02 51.01671 -111.07480 33495 ft 538 kts 38°
2026-04-22 17:03 51.25566 -110.78705 33498 ft 539 kts 38°
2026-04-22 17:03 51.49455 -110.49551 33509 ft 541 kts 38°
2026-04-22 17:04 51.73332 -110.20015 33943 ft 541 kts 38°
2026-04-22 17:04 51.85222 -110.05156 34510 ft 540 kts 38°
2026-04-22 17:04 51.96761 -109.89513 34583 ft 540 kts 44°
2026-04-22 17:05 52.18812 -109.56211 34610 ft 544 kts 43°
2026-04-22 17:05 52.40879 -109.22919 34638 ft 543 kts 44°
2026-04-22 17:06 52.63093 -108.88906 34665 ft 546 kts 44°
2026-04-22 17:06 52.85280 -108.54435 34674 ft 550 kts 43°
2026-04-22 17:07 53.07492 -108.19412 34706 ft 551 kts 44°
2026-04-22 17:07 53.29747 -107.83790 34740 ft 555 kts 43°
2026-04-22 17:08 53.51995 -107.47630 34779 ft 560 kts 43°
2026-04-22 17:08 53.75200 -107.12810 34810 ft 559 kts 38°
2026-04-22 17:09 53.98946 -106.78502 34835 ft 561 kts 38°
2026-04-22 17:09 54.22629 -106.43657 34867 ft 563 kts 38°
2026-04-22 17:10 54.46262 -106.08332 34911 ft 563 kts 37°
2026-04-22 17:10 54.69789 -105.72605 34930 ft 564 kts 38°
2026-04-22 17:11 54.93279 -105.36352 34948 ft 565 kts 37°
2026-04-22 17:11 55.16672 -104.99654 34981 ft 565 kts 38°
2026-04-22 17:12 55.39935 -104.62553 34991 ft 565 kts 38°
2026-04-22 17:12 55.63087 -104.25010 35027 ft 566 kts 37°
2026-04-22 17:13 55.86110 -103.87040 35054 ft 563 kts 37°
2026-04-22 17:13 56.08760 -103.49052 35065 ft 560 kts 37°
2026-04-22 17:14 56.31306 -103.10593 35082 ft 558 kts 37°
2026-04-22 17:14 56.53717 -102.71705 35097 ft 557 kts 37°
2026-04-22 17:15 56.75916 -102.32516 35123 ft 556 kts 37°
2026-04-22 17:15 56.97951 -101.92931 35135 ft 555 kts 37°
2026-04-22 17:16 57.19773 -101.53035 35161 ft 553 kts 37°
2026-04-22 17:16 57.41500 -101.12607 35165 ft 554 kts 37°
2026-04-22 17:17 57.63030 -100.71813 35189 ft 550 kts 37°
2026-04-22 17:17 57.84347 -100.30702 35213 ft 547 kts 38°
2026-04-22 17:18 58.05336 -99.89332 35225 ft 547 kts 39°
2026-04-22 17:18 58.25703 -99.47268 35235 ft 540 kts 39°
2026-04-22 17:19 58.65774 -98.62530 35212 ft 534 kts 40°
2026-04-22 17:20 59.04948 -97.76575 35303 ft 532 kts 41°
2026-04-22 17:21 59.33700 -97.11379 35333 ft 527 kts 43°
2026-04-22 17:22 59.61945 -96.45498 35349 ft 523 kts 44°
2026-04-22 17:23 59.89740 -95.78783 35358 ft 523 kts 45°
2026-04-22 17:23 60.17158 -95.11035 35359 ft 521 kts 46°
2026-04-22 17:24 60.35227 -94.65280 35369 ft 521 kts 47°
2026-04-22 17:24 60.53075 -94.19178 35356 ft 520 kts 47°
2026-04-22 17:25 60.70762 -93.72569 35384 ft 519 kts 44°
2026-04-22 17:25 60.88459 -93.26066 35354 ft 519 kts 49°
2026-04-22 17:26 61.05801 -92.78863 35352 ft 518 kts 47°
2026-04-22 17:26 61.22688 -92.30604 35343 ft 516 kts 49°
2026-04-22 17:27 61.39547 -91.82309 35344 ft 514 kts 50°
2026-04-22 17:27 61.56212 -91.33631 35336 ft 514 kts 51°
2026-04-22 17:28 61.72681 -90.84494 35333 ft 514 kts 51°
2026-04-22 17:28 61.88857 -90.35184 35327 ft 513 kts 52°
2026-04-22 17:29 62.05366 -89.85284 35324 ft 510 kts 47°
2026-04-22 17:29 62.22856 -89.38020 35342 ft 511 kts 49°
2026-04-22 17:30 62.40300 -88.89173 35327 ft 512 kts 49°
2026-04-22 17:30 62.57367 -88.40370 35321 ft 512 kts 50°
2026-04-22 17:31 62.74370 -87.90684 35317 ft 512 kts 51°
2026-04-22 17:31 62.91320 -87.40049 35331 ft 513 kts 51°
2026-04-22 17:32 63.07890 -86.89435 35330 ft 513 kts 52°
2026-04-22 17:32 63.24402 -86.37852 35337 ft 513 kts 52°
2026-04-22 17:33 63.40712 -85.85722 35336 ft 513 kts 53°
2026-04-22 17:33 63.56823 -85.33023 35342 ft 513 kts 54°
2026-04-22 17:34 63.71949 -84.82403 35344 ft 514 kts 54°
2026-04-22 17:34 63.87696 -84.28465 35345 ft 514 kts 55°
2026-04-22 17:35 64.03265 -83.73835 35345 ft 515 kts 56°
2026-04-22 17:35 64.18628 -83.18593 35328 ft 514 kts 57°
2026-04-22 17:36 64.33790 -82.62703 35366 ft 515 kts 57°
2026-04-22 17:36 64.48722 -82.06253 35380 ft 515 kts 58°
2026-04-22 17:37 64.63438 -81.49178 35380 ft 514 kts 59°
2026-04-22 17:37 64.77909 -80.91575 35380 ft 514 kts 59°
2026-04-22 17:38 64.92080 -80.33670 35372 ft 514 kts 60°
2026-04-22 17:38 65.07366 -79.76582 35385 ft 515 kts 53°
2026-04-22 17:39 65.24164 -79.21428 35399 ft 515 kts 54°
2026-04-22 17:40 65.48960 -78.37241 35401 ft 515 kts 55°
2026-04-22 17:40 65.65246 -77.80168 35409 ft 516 kts 56°
2026-04-22 17:41 65.81327 -77.22335 35415 ft 516 kts 57°
2026-04-22 17:41 65.94651 -76.73248 35419 ft 516 kts 57°
2026-04-22 17:42 66.10320 -76.14065 35423 ft 517 kts 58°
2026-04-22 17:42 66.25718 -75.54023 35426 ft 516 kts 60°
2026-04-22 17:43 66.40898 -74.93336 35414 ft 516 kts 60°
2026-04-22 17:43 66.55877 -74.31941 35425 ft 517 kts 61°
2026-04-22 17:44 66.70529 -73.70161 35416 ft 517 kts 62°
2026-04-22 17:44 66.85135 -73.06774 35412 ft 517 kts 63°
2026-04-22 17:45 66.99305 -72.43447 35397 ft 517 kts 64°
2026-04-22 17:45 67.13293 -71.79042 35393 ft 517 kts 64°
2026-04-22 17:46 67.27026 -71.13864 35384 ft 517 kts 65°
2026-04-22 17:46 67.40476 -70.48020 35377 ft 517 kts 66°
2026-04-22 17:47 67.53906 -69.81537 35370 ft 519 kts 64°
2026-04-22 17:47 67.68106 -69.15631 35371 ft 519 kts 65°
2026-04-22 17:48 67.81926 -68.48788 35357 ft 519 kts 66°
2026-04-22 17:48 67.95500 -67.81027 35360 ft 519 kts 66°
2026-04-22 17:49 68.08759 -67.12646 35386 ft 520 kts 68°
2026-04-22 17:49 68.21800 -66.43112 35383 ft 520 kts 69°
2026-04-22 17:50 68.34570 -65.72665 35382 ft 523 kts 70°
2026-04-22 17:50 68.47068 -65.01258 35367 ft 524 kts 70°
2026-04-22 17:51 68.59302 -64.28824 35337 ft 525 kts 71°
2026-04-22 17:51 68.71248 -63.55429 35302 ft 526 kts 72°
2026-04-22 17:52 68.82908 -62.81023 35316 ft 530 kts 73°
2026-04-22 17:52 68.94272 -62.05621 35300 ft 530 kts 75°
2026-04-22 17:52 68.96743 -61.66490 35292 ft 510 kts 94°
2026-04-22 17:53 68.97627 -61.27091 35284 ft 509 kts 95°
2026-04-22 17:53 68.99214 -60.48351 35277 ft 509 kts 96°
2026-04-22 17:54 69.03972 -59.69639 35259 ft 535 kts 77°
2026-04-22 17:54 69.14256 -58.91007 35237 ft 537 kts 79°
2026-04-22 17:55 69.24015 -58.12082 35166 ft 537 kts 80°
2026-04-22 17:55 69.33506 -57.31638 35215 ft 541 kts 81°
2026-04-22 17:56 69.42640 -56.50355 35184 ft 540 kts 82°
2026-04-22 17:56 69.51408 -55.68213 35189 ft 541 kts 83°
2026-04-22 17:57 69.59793 -54.85315 35189 ft 544 kts 84°
2026-04-22 17:57 69.67809 -54.01588 35186 ft 543 kts 84°
2026-04-22 17:58 69.75423 -53.17154 35207 ft 546 kts 85°
2026-04-22 17:58 69.82678 -52.31589 35215 ft 548 kts 86°
2026-04-22 17:59 69.89519 -51.45392 35222 ft 550 kts 86°
2026-04-22 17:59 69.95998 -50.57881 35238 ft 553 kts 87°
2026-04-22 18:00 70.00453 -49.84614 35234 ft 548 kts 94°
2026-04-22 18:00 70.02962 -48.81167 35241 ft 545 kts 96°
2026-04-22 18:01 70.04633 -47.92724 35251 ft 543 kts 96°
2026-04-22 18:01 70.05860 -47.04391 35240 ft 545 kts 96°
2026-04-22 18:01 70.06315 -46.60045 35735 ft 542 kts 97°
2026-04-22 18:02 70.06656 -46.16073 36514 ft 539 kts 97°
2026-04-22 18:02 70.06886 -45.72139 37083 ft 539 kts 97°
2026-04-22 18:02 70.07008 -45.28088 37250 ft 538 kts 97°
2026-04-22 18:03 70.06930 -44.40409 37272 ft 537 kts 98°
2026-04-22 18:03 70.06426 -43.53055 37288 ft 536 kts 98°
2026-04-22 18:04 70.05495 -42.65841 37264 ft 534 kts 98°
2026-04-22 18:04 70.04149 -41.79316 37323 ft 530 kts 99°
2026-04-22 18:05 70.02410 -40.93959 37341 ft 529 kts 99°
2026-04-22 18:05 70.00227 -40.07504 37369 ft 528 kts 100°
2026-04-22 18:06 69.98207 -39.21834 37376 ft 529 kts 99°
2026-04-22 18:06 69.95827 -38.36345 37390 ft 528 kts 99°
2026-04-22 18:07 69.93060 -37.51643 37389 ft 529 kts 99°
2026-04-22 18:07 69.89863 -36.66520 37337 ft 531 kts 99°
2026-04-22 18:08 69.86258 -35.81635 37357 ft 529 kts 100°
2026-04-22 18:08 69.82271 -34.97510 37352 ft 520 kts 100°
2026-04-22 18:09 69.77948 -34.14908 37304 ft 518 kts 101°
2026-04-22 18:09 69.73253 -33.32788 37288 ft 519 kts 101°
2026-04-22 18:10 69.68166 -32.50951 37230 ft 519 kts 102°
2026-04-22 18:10 69.62760 -31.70357 37190 ft 509 kts 102°
2026-04-22 18:11 69.57036 -30.90855 37207 ft 510 kts 103°
2026-04-22 18:11 69.50954 -30.11777 37236 ft 508 kts 103°
2026-04-22 18:12 69.42571 -29.34967 37174 ft 506 kts 109°
2026-04-22 18:12 69.35145 -28.72567 37152 ft 502 kts 109°
2026-04-22 18:13 69.24367 -27.85862 37148 ft 496 kts 109°
2026-04-22 18:13 69.14889 -27.12986 37144 ft 496 kts 110°
2026-04-22 18:14 69.05123 -26.40882 37170 ft 495 kts 111°
2026-04-22 18:14 68.95047 -25.69375 37209 ft 495 kts 111°
2026-04-22 18:15 68.84780 -24.99219 37224 ft 489 kts 111°
2026-04-22 18:15 68.74332 -24.30442 37229 ft 486 kts 111°
2026-04-22 18:16 68.63593 -23.62173 37244 ft 487 kts 112°
2026-04-22 18:16 68.52616 -22.94775 37254 ft 482 kts 112°
2026-04-22 18:17 68.41417 -22.28291 37271 ft 483 kts 114°
2026-04-22 18:17 68.29943 -21.62453 37282 ft 483 kts 115°
2026-04-22 18:18 68.18195 -20.97149 37307 ft 483 kts 116°
2026-04-22 18:18 68.09572 -20.50518 37316 ft 481 kts 117°
2026-04-22 18:19 68.00699 -20.03652 37322 ft 480 kts 118°
2026-04-22 18:19 67.86513 -19.43738 37333 ft 476 kts 123°
2026-04-22 18:20 67.72021 -18.84900 37350 ft 473 kts 124°
2026-04-22 18:20 67.57445 -18.27275 37353 ft 471 kts 124°
2026-04-22 18:21 67.42779 -17.70784 37368 ft 465 kts 125°
2026-04-22 18:21 67.27988 -17.15245 37391 ft 467 kts 125°
2026-04-22 18:22 67.13040 -16.60522 37385 ft 467 kts 126°
2026-04-22 18:22 66.97862 -16.06302 37395 ft 470 kts 127°
2026-04-22 18:23 66.82493 -15.52740 37401 ft 471 kts 127°
2026-04-22 18:23 66.66908 -14.99708 37405 ft 470 kts 128°
2026-04-22 18:24 66.44832 -14.26723 37412 ft 469 kts 128°
2026-04-22 18:25 66.20878 -13.50173 37417 ft 464 kts 129°
2026-04-22 18:25 66.04932 -13.00654 37414 ft 464 kts 129°
2026-04-22 18:26 65.80803 -12.27780 37431 ft 458 kts 130°
2026-04-22 18:26 65.64651 -11.80306 37436 ft 453 kts 131°
2026-04-22 18:27 65.48455 -11.33733 37433 ft 452 kts 131°
2026-04-22 18:27 65.32206 -10.87966 37434 ft 450 kts 131°
2026-04-22 18:28 65.15896 -10.42975 37436 ft 446 kts 132°
2026-04-22 18:28 64.99443 -9.99039 37445 ft 445 kts 137°
2026-04-22 18:29 64.84010 -9.66641 37447 ft 441 kts 139°
2026-04-22 18:29 64.65544 -9.28819 37457 ft 440 kts 139°
2026-04-22 18:30 64.37823 -8.73335 37462 ft 440 kts 139°
2026-04-22 18:31 64.19166 -8.36844 37473 ft 440 kts 140°
2026-04-22 18:31 64.00304 -8.00626 37478 ft 438 kts 140°
2026-04-22 18:32 63.81706 -7.65554 37487 ft 436 kts 140°
2026-04-22 18:32 63.62977 -7.30856 37493 ft 435 kts 140°
2026-04-22 18:33 63.44161 -6.96605 37500 ft 436 kts 140°
2026-04-22 18:33 63.25300 -6.62867 37508 ft 434 kts 140°
2026-04-22 18:34 63.06383 -6.29606 37512 ft 435 kts 141°
2026-04-22 18:34 62.87341 -5.96693 37485 ft 435 kts 141°
2026-04-22 18:35 62.68330 -5.64386 37516 ft 433 kts 141°
2026-04-22 18:35 62.49191 -5.32400 37522 ft 434 kts 141°
2026-04-22 18:36 62.29985 -5.00834 37546 ft 433 kts 142°
2026-04-22 18:36 62.10754 -4.69739 37536 ft 434 kts 142°
2026-04-22 18:37 61.91361 -4.38891 37538 ft 435 kts 142°
2026-04-22 18:37 61.72139 -4.08060 37538 ft 434 kts 141°
2026-04-22 18:38 61.52611 -3.78351 37538 ft 433 kts 142°
2026-04-22 18:38 61.33068 -3.48768 37511 ft 433 kts 143°
2026-04-22 18:39 61.03815 -3.05381 37546 ft 431 kts 143°
2026-04-22 18:39 60.83148 -2.79937 37546 ft 434 kts 148°
2026-04-22 18:40 60.62221 -2.55639 37543 ft 433 kts 148°
2026-04-22 18:40 60.41314 -2.31716 37546 ft 435 kts 149°
2026-04-22 18:41 60.20098 -2.07892 37538 ft 437 kts 149°
2026-04-22 18:41 59.98716 -1.84159 37537 ft 435 kts 149°
2026-04-22 18:42 59.77466 -1.60978 37536 ft 438 kts 150°
2026-04-22 18:42 59.56038 -1.37899 37534 ft 440 kts 150°
2026-04-22 18:43 59.35545 -1.11735 37533 ft 437 kts 146°
2026-04-22 18:43 59.15083 -0.85752 37533 ft 440 kts 147°
2026-04-22 18:44 58.94584 -0.60083 37537 ft 443 kts 147°
2026-04-22 18:44 58.73810 -0.34443 37532 ft 443 kts 147°
2026-04-22 18:45 58.52940 -0.09054 37535 ft 443 kts 147°
2026-04-22 18:45 58.32078 0.15967 37533 ft 443 kts 147°
2026-04-22 18:46 58.11105 0.40768 37522 ft 447 kts 148°
2026-04-22 18:46 57.89690 0.64475 37519 ft 446 kts 153°
2026-04-22 18:47 57.67301 0.84743 37516 ft 447 kts 153°
2026-04-22 18:47 57.44760 1.04913 37516 ft 450 kts 153°
2026-04-22 18:48 57.22115 1.24897 37511 ft 449 kts 153°
2026-04-22 18:48 56.99411 1.44664 37506 ft 453 kts 153°
2026-04-22 18:49 56.76706 1.64161 37506 ft 457 kts 153°
2026-04-22 18:49 56.53563 1.83765 37506 ft 454 kts 153°
2026-04-22 18:50 56.30579 2.02976 37500 ft 459 kts 153°
2026-04-22 18:50 56.07005 2.22417 37488 ft 464 kts 153°
2026-04-22 18:51 55.83592 2.41056 37491 ft 460 kts 157°
2026-04-22 18:51 55.59220 2.56163 37486 ft 467 kts 158°
2026-04-22 18:52 55.34604 2.71666 37483 ft 473 kts 158°
2026-04-22 18:52 55.09909 2.86997 37479 ft 476 kts 158°
2026-04-22 18:53 54.85116 3.02189 37476 ft 480 kts 158°
2026-04-22 18:53 54.59738 3.17141 37473 ft 488 kts 165°
2026-04-22 18:54 54.33008 3.26167 37464 ft 491 kts 167°
2026-04-22 18:54 54.06100 3.35007 37460 ft 494 kts 167°
2026-04-22 18:55 53.79012 3.43785 37446 ft 497 kts 167°
2026-04-22 18:55 53.51735 3.52510 37444 ft 501 kts 168°
2026-04-22 18:56 53.24292 3.60831 37433 ft 501 kts 168°
2026-04-22 18:56 52.97071 3.70607 37422 ft 498 kts 149°
2026-04-22 18:57 52.86389 3.84794 37412 ft 496 kts 135°
2026-04-22 18:57 52.76137 4.00168 37408 ft 496 kts 136°
2026-04-22 18:57 52.58473 4.33867 37396 ft 485 kts 110°
2026-04-22 18:58 52.46108 4.73666 37378 ft 490 kts 111°
2026-04-22 18:58 52.33525 5.13348 37378 ft 490 kts 111°
2026-04-22 18:59 52.20850 5.52677 37374 ft 488 kts 112°
2026-04-22 18:59 52.08225 5.91491 37360 ft 490 kts 112°
2026-04-22 19:00 52.02780 6.08051 37365 ft 488 kts 112°
2026-04-22 19:00 51.99697 6.17873 37353 ft 482 kts 105°
2026-04-22 19:01 51.96512 6.26489 38065 ft 422 kts 121°
2026-04-22 19:01 51.94680 6.30030 38196 ft 387 kts 109°
2026-04-22 19:01 51.93272 6.33403 37953 ft 352 kts 104°
2026-04-22 19:02 51.93683 6.37174 35124 ft 388 kts 47°
2026-04-22 19:02 51.94277 6.41050 32444 ft 341 kts 105°